[[{"header":{"parameterUnit":"m.s-1","parameterCategory":1,"la1":30.2991,"la2":30.254,"lo1":-89.0895,"lo2":-89.0444,"dy":0.0017,"dx":0.0017,"nx":28,"ny":28,"refTime":"2024-08-13T21:00:00:Z","depth":0,"parameterNumber":2,"parameterNumberName":"U-component_of_WINDS"},"data":[0,0,0,0,0,0,0,0,0,0,0,0,0,0,0,0,0,0,0,0,0,0,0,0,0,0,0,0,0,0,0,0,0,0,0,0,0,0,0,0,0,0,0,0,0,0,0,0,0,0,0,0,0,0,0,0,0,0,0.6046,0.6045,0,0.5949,0.5948,0.5947,0.5802,0.5799,0.5797,0.5794,0.5703,0.5703,0.5703,0,0,0,0,0,0,0,0,0,0,0,0,0,0.6112,0.6111,0.6047,0.6045,0.6044,0.5949,0.5948,0.5946,0.5802,0.5799,0.5796,0.5793,0.5703,0.5703,0.5703,0,0,0,0,0,0,0,0,0,0,0,0,0,0.6056,0.6111,0.6047,0.596,0.5952,0.5949,0.5948,0.5946,0.5803,0.5799,0.5795,0.5791,0.5703,0.5703,0.5703,0.578,0,0,0.5703,0.5702,0,0,0,0,0,0,0,0,0.606,0.6054,0.5974,0.5966,0.5956,0.5883,0.5937,0.5891,0.5804,0.586,0.5794,0.579,0.5767,0.5761,0.5751,0.5775,0.5771,0.5703,0.5702,0.5702,0.5702,0,0,0,0,0,0,0,0.6064,0.6057,0.6008,0.5973,0.5962,0.5928,0.5916,0.5928,0.5836,0.5854,0.5844,0.5834,0.5761,0.5752,0.5748,0.577,0.5703,0.5702,0.5702,0.5702,0.585,0.5854,0,0,0,0,0,0,0.6079,0.6062,0.6011,0.6005,0.5999,0.593,0.5916,0.5911,0.5836,0.582,0.5837,0.5827,0.5754,0.5748,0.5745,0.583,0.5702,0.5702,0.5702,0.5846,0.5851,0.5855,0,0,0,0,0,0,0.6081,0.6076,0.6015,0.603,0.602,0.5933,0.5928,0.5911,0.5902,0.5822,0.5806,0.5844,0.5751,0.5745,0.5771,0.5825,0.5702,0.5702,0.5842,0.5848,0.5853,0.6002,0,0,0,0,0,0,0.6084,0.6078,0.6106,0.6032,0.6019,0.6043,0.5931,0.5912,0.5901,0.5887,0.5825,0.5811,0.5747,0.5772,0.5771,0.5822,0.5702,0.5837,0.5844,0.5851,0.5992,0.6012,0.6029,0,0,0,0,0,0.6087,0.6154,0.6108,0.6103,0.6052,0.6046,0.6039,0.5962,0.5906,0.5934,0.5882,0.5813,0.5817,0.5776,0.5774,0.5826,0.5833,0.5842,0.5851,0.5984,0.6008,0.6029,0,0,0,0,0,0,0.6241,0.6143,0.6091,0.6136,0.61,0.6022,0.6055,0.5991,0.5973,0.5961,0.5868,0.5855,0.5894,0.5861,0.5817,0.5895,0.5815,0.5824,0.5916,0.5939,0.5957,0.5967,0.5702,0,0,0,0,0,0.6279,0.628,0.6195,0.6243,0.6227,0.6144,0.6139,0.6081,0.6042,0.6027,0.5977,0.5944,0.5936,0.5935,0.5925,0.5984,0.5969,0.6018,0.6037,0.6053,0.6064,0.6093,0.6114,0.5885,0.5885,0.5884,0,0,0.6361,0.6307,0.6314,0.6272,0.6238,0.6243,0.6133,0.6143,0.6147,0.6029,0.6051,0.6013,0.5969,0.6012,0.6028,0.5986,0.6122,0.6064,0.6078,0.608,0.6104,0.6126,0.6145,0.5891,0.589,0.5889,0,0,0.6512,0.647,0.6505,0.6471,0.6418,0.6361,0.637,0.6299,0.6269,0.6288,0.6199,0.6202,0.6193,0.6164,0.6149,0.6283,0.6219,0.6281,0.6382,0.6412,0.643,0.6445,0.6495,0.6514,0.6291,0.6291,0.6292,0,0.6621,0.6623,0.6532,0.6547,0.6531,0.6419,0.6455,0.6427,0.6375,0.6368,0.6319,0.6303,0.6266,0.6301,0.6333,0.6323,0.6331,0.6292,0.6434,0.6448,0.6462,0.6509,0.6528,0.63,0.6299,0.6298,0.6297,0,0.676,0.6762,0.6797,0.6746,0.6733,0.6759,0.6672,0.6671,0.6612,0.6561,0.6581,0.6531,0.6508,0.651,0.6456,0.6537,0.6513,0.645,0.6368,0.6494,0.6536,0.6553,0.6311,0.6308,0.6306,0.6304,0,0,0.7014,0.6906,0.6921,0.6895,0.6826,0.6827,0.6846,0.6819,0.6821,0.6786,0.6802,0.6793,0.6734,0.6716,0.6656,0.6681,0.6792,0.6615,0.6613,0.6653,0.688,0.6932,0.6954,0.6746,0.6749,0.6751,0.6885,0,0.7155,0.718,0.7096,0.7144,0.7145,0.7036,0.7052,0.7012,0.6963,0.6958,0.6903,0.69,0.682,0.6809,0.6828,0.6775,0.6837,0.6763,0.6763,0.6764,0.6783,0.6975,0.703,0.7159,0.6901,0.6904,0.6905,0,0.7325,0.7296,0.7343,0.7267,0.7265,0.7281,0.7249,0.7244,0.7195,0.7158,0.7135,0.7063,0.7077,0.6994,0.7013,0.6965,0.6958,0.6932,0.6934,0.6937,0.6847,0.6987,0.7198,0.722,0.693,0.6928,0.6927,0,0.7509,0.7481,0.7505,0.7486,0.7398,0.7412,0.7376,0.7323,0.7312,0.7283,0.7275,0.7249,0.7237,0.722,0.7143,0.7089,0.7172,0.7082,0.7144,0.7147,0.7173,0.7173,0.7391,0.7161,0.716,0.716,0.7159,0,0.7679,0.7713,0.7586,0.7603,0.7637,0.7538,0.7575,0.7529,0.7481,0.7487,0.7389,0.7397,0.7292,0.7289,0.7228,0.7255,0.7249,0.7221,0.7206,0.7233,0.7237,0.7232,0.7223,0.7165,0.7164,0.7163,0.7162,0,0.7894,0.781,0.783,0.7741,0.772,0.775,0.7675,0.7687,0.7628,0.7636,0.7632,0.7542,0.7532,0.7451,0.7425,0.7384,0.7435,0.7399,0.7452,0.7442,0.751,0.7506,0.7737,0.7763,0.7512,0.7514,0.7516,0,0.8011,0.8034,0.7947,0.7941,0.7909,0.7902,0.7888,0.779,0.778,0.7723,0.7743,0.7723,0.7704,0.7693,0.7627,0.7605,0.7572,0.7653,0.7569,0.7595,0.7578,0.7579,0.7582,0.7674,0.7678,0.768,0.7682,0,0.8229,0.8184,0.8166,0.8133,0.8118,0.8088,0.8053,0.8055,0.7946,0.794,0.7926,0.791,0.7879,0.7863,0.7829,0.7793,0.7722,0.7708,0.7722,0.7753,0.7784,0.7772,0.7506,0.7705,0.7703,0.7701,0.77,0.7699,0.8401,0.8416,0.8355,0.8338,0.8299,0.8267,0.8273,0.8212,0.8198,0.8164,0.8105,0.8101,0.8048,0.7994,0.7964,0.7959,0.7917,0.7937,0.7943,0.795,0.7966,0.7779,0.7952,0.7952,0.7951,0.795,0.795,0,0.8617,0.857,0.8554,0.8505,0.8492,0.8417,0.8372,0.8367,0.8363,0.8318,0.8298,0.8282,0.8264,0.8193,0.8168,0.8178,0.8145,0.8175,0.8177,0.817,0.8004,0.7996,0.8203,0.8203,0.8203,0.8203,0.8203,0.8203,0.8728,0.8749,0.8696,0.8696,0.865,0.8642,0.8623,0.8592,0.8556,0.8541,0.8524,0.8475,0.842,0.8389,0.8369,0.8348,0.8346,0.8389,0.8359,0.8206,0.8182,0.8159,0.8151,0.8388,0.8388,0.8526,0.8527,0.8528]},{"header":{"parameterUnit":"m.s-1","parameterCategory":1,"la1":30.2991,"la2":30.254,"lo1":-89.0895,"lo2":-89.0444,"dy":0.0017,"dx":0.0017,"nx":28,"ny":28,"refTime":"2024-08-13T21:00:00:Z","depth":0,"parameterNumber":3,"parameterNumberName":"V-component_of_WINDS"},"data":[0,0,0,0,0,0,0,0,0,0,0,0,0,0,0,0,0,0,0,0,0,0,0,0,0,0,0,0,0,0,0,0,0,0,0,0,0,0,0,0,0,0,0,0,0,0,0,0,0,0,0,0,0,0,0,0,0,0,0.0387,0.0387,0,0.0321,0.032,0.0319,0.0282,0.0282,0.0281,0.0281,0.0209,0.0207,0.0206,0,0,0,0,0,0,0,0,0,0,0,0,0,0.0477,0.0475,0.0387,0.0386,0.0386,0.0321,0.032,0.0319,0.0282,0.0282,0.0281,0.0281,0.021,0.0208,0.0206,0,0,0,0,0,0,0,0,0,0,0,0,0,0.0427,0.0475,0.0387,0.0359,0.0356,0.0321,0.032,0.0319,0.0282,0.0282,0.0281,0.0281,0.0211,0.0208,0.0205,0.0192,0,0,0.0197,0.0196,0,0,0,0,0,0,0,0,0.043,0.0424,0.0364,0.0361,0.0357,0.031,0.0325,0.0276,0.0282,0.031,0.0281,0.0281,0.0242,0.0237,0.0225,0.0189,0.0186,0.0197,0.0195,0.0194,0.0193,0,0,0,0,0,0,0,0.0433,0.0426,0.0361,0.0363,0.0359,0.0348,0.0341,0.0316,0.0278,0.0307,0.0304,0.0297,0.0241,0.0228,0.0223,0.0185,0.0197,0.0194,0.0193,0.0192,0.0134,0.0134,0,0,0,0,0,0,0.0442,0.0429,0.0363,0.0359,0.0394,0.0347,0.0339,0.0325,0.0278,0.0271,0.0298,0.0296,0.0232,0.0226,0.022,0.0201,0.0194,0.0191,0.019,0.0133,0.0134,0.0134,0,0,0,0,0,0,0.0444,0.0436,0.0366,0.0393,0.0384,0.0346,0.033,0.0324,0.0311,0.0271,0.0263,0.0292,0.0232,0.0224,0.02,0.0198,0.019,0.0188,0.0133,0.0134,0.0134,0.0164,0,0,0,0,0,0,0.0447,0.0437,0.0433,0.0394,0.0382,0.0348,0.033,0.0323,0.0307,0.0304,0.0263,0.0256,0.0231,0.0204,0.0197,0.0195,0.0186,0.0133,0.0133,0.0134,0.0163,0.0165,0.0167,0,0,0,0,0,0.045,0.0443,0.0433,0.0425,0.0376,0.0348,0.0341,0.0313,0.0307,0.0302,0.0276,0.0258,0.02,0.0202,0.0194,0.019,0.0133,0.0133,0.0134,0.0162,0.0165,0.0167,0,0,0,0,0,0,0.0482,0.0438,0.0426,0.0406,0.0381,0.0341,0.0334,0.0317,0.0292,0.029,0.0256,0.0247,0.0226,0.0205,0.0208,0.0175,0.0164,0.0163,0.0189,0.0191,0.0193,0.0198,0.0183,0,0,0,0,0,0.0487,0.0469,0.0431,0.0417,0.0405,0.0372,0.0358,0.0339,0.0311,0.03,0.0272,0.0245,0.022,0.0204,0.018,0.016,0.015,0.0154,0.0156,0.0158,0.0157,0.0144,0.0145,0.0134,0.0134,0.0134,0,0,0.0497,0.0471,0.0461,0.0423,0.0401,0.0382,0.0363,0.0343,0.0328,0.0296,0.0272,0.0251,0.0217,0.0195,0.0184,0.0177,0.0158,0.0158,0.016,0.0158,0.0144,0.0145,0.0146,0.0134,0.0134,0.0134,0,0,0.0505,0.0484,0.047,0.0449,0.0417,0.0394,0.0391,0.0354,0.0339,0.0314,0.029,0.027,0.0229,0.0206,0.0189,0.0189,0.0171,0.0182,0.0192,0.018,0.0181,0.0182,0.0181,0.0181,0.0181,0.0181,0.0181,0,0.0521,0.0492,0.0465,0.0446,0.043,0.0402,0.0387,0.0367,0.0328,0.0317,0.0311,0.0259,0.0234,0.0206,0.0206,0.0193,0.0187,0.0186,0.0183,0.0184,0.0184,0.0182,0.0182,0.0182,0.0182,0.0182,0.0182,0,0.0512,0.0493,0.0485,0.045,0.0433,0.0416,0.0385,0.0371,0.0353,0.0331,0.0306,0.0276,0.0244,0.0236,0.0218,0.0205,0.0202,0.019,0.0179,0.0187,0.0185,0.0184,0.0184,0.0184,0.0183,0.0183,0,0,0.0538,0.0489,0.0486,0.047,0.0432,0.0415,0.0397,0.0368,0.0356,0.033,0.0313,0.0279,0.0267,0.0248,0.0227,0.0217,0.0218,0.0206,0.0205,0.0209,0.02,0.0209,0.0209,0.0206,0.0206,0.0206,0.0203,0,0.054,0.0508,0.0483,0.0459,0.044,0.0413,0.0397,0.0372,0.0351,0.033,0.0306,0.0283,0.027,0.0258,0.0247,0.022,0.0215,0.022,0.0188,0.0188,0.0197,0.0208,0.0218,0.0216,0.0202,0.0202,0.0202,0,0.0538,0.0515,0.049,0.0454,0.0445,0.0431,0.0402,0.0384,0.0354,0.0339,0.0318,0.0297,0.0275,0.0266,0.0235,0.0239,0.0224,0.0209,0.0208,0.0204,0.0195,0.0203,0.0215,0.0215,0.02,0.0201,0.0201,0,0.0559,0.0521,0.0501,0.0487,0.0446,0.0436,0.0418,0.0388,0.0372,0.0346,0.0335,0.0307,0.0291,0.0268,0.024,0.0236,0.0211,0.02,0.0197,0.0198,0.0192,0.0193,0.0202,0.0184,0.0184,0.0184,0.0184,0,0.0563,0.0549,0.0509,0.0497,0.048,0.0451,0.0434,0.0413,0.0387,0.0369,0.0343,0.0327,0.029,0.0269,0.0246,0.0223,0.0216,0.0202,0.0196,0.0204,0.0206,0.0194,0.0193,0.0184,0.0184,0.0184,0.0184,0,0.0583,0.0556,0.0533,0.0496,0.0486,0.0475,0.0442,0.0428,0.0406,0.0384,0.0377,0.0341,0.0315,0.0284,0.0247,0.0232,0.021,0.0202,0.0221,0.0217,0.0216,0.0216,0.0216,0.0214,0.0199,0.0199,0.02,0,0.0588,0.0576,0.0538,0.0525,0.0508,0.0487,0.0471,0.0441,0.0425,0.039,0.0381,0.0353,0.0328,0.0287,0.0257,0.0228,0.0218,0.0221,0.0214,0.0222,0.0218,0.0218,0.0217,0.0222,0.0223,0.0223,0.0223,0,0.0598,0.0586,0.0564,0.0538,0.052,0.0497,0.0473,0.0464,0.0429,0.0412,0.0385,0.0367,0.0329,0.0301,0.0269,0.0248,0.0229,0.0226,0.0223,0.0231,0.0242,0.0235,0.0225,0.0225,0.0225,0.0225,0.0225,0.0225,0.061,0.0598,0.057,0.0546,0.0526,0.0504,0.049,0.0466,0.0444,0.0412,0.0396,0.0369,0.0339,0.0294,0.0274,0.0252,0.0245,0.0242,0.0241,0.024,0.0242,0.0247,0.0246,0.0245,0.0245,0.0245,0.0245,0,0.0618,0.0599,0.0578,0.0546,0.0528,0.0513,0.0486,0.0471,0.0449,0.0423,0.04,0.0369,0.0341,0.031,0.028,0.0268,0.0259,0.0261,0.0261,0.0257,0.025,0.0255,0.0269,0.0269,0.0269,0.0269,0.0269,0.0269,0.0621,0.06,0.0584,0.0553,0.0533,0.0508,0.0494,0.0473,0.0452,0.042,0.0397,0.0377,0.0348,0.0316,0.029,0.0281,0.0271,0.0276,0.0265,0.0259,0.0257,0.0255,0.026,0.0275,0.0275,0.0273,0.0273,0.0273]}]]